Wind_Speed
15 18 17 15 16 17 14 16 15 16 5 9 6 19 14 53 17 18 19 20 22 20 22 22 15 11 10 8 10 9 9 8 7 6 8 7 2 3 1 3 7 9 9 7
16 19 20 19 19 14 16 18 15 15 11 7 16 14 35 39 16 17 19 20 22 21 20 19 20 13 10 11 9 7 7 5 5 8 10 8 5 4 1 4 6 6 7 5
14 16 15 15 17 14 15 16 17 16 5 19 20 16 40 17 18 17 20 20 23 20 18 17 18 11 12 11 13 11 6 7 6 9 11 8 8 7 5 2 4 3 4 4
11 13 15 15 11 8 14 14 15 14 20 27 32 36 29 6 15 15 20 22 23 19 16 17 15 12 16 15 11 4 8 12 11 10 7 9 9 9 9 5 2 2 1 3
10 13 14 17 4 16 14 13 14 22 25 17 18 36 8 7 10 17 19 26 24 20 17 19 21 17 10 6 5 7 8 13 13 19 15 9 14 12 10 7 4 3 2 2
12 13 16 13 14 16 21 6 14 18 29 31 25 6 3 14 15 17 19 25 26 25 22 21 17 15 10 12 11 14 13 12 8 6 5 8 12 13 8 7 6 7 7 3
12 13 16 17 17 26 13 7 15 12 14 27 12 20 6 11 17 18 19 27 26 23 20 17 14 13 15 15 13 10 8 5 5 3 2 7 8 10 8 7 7 9 7 5
11 14 20 16 12 4 1 7 9 12 11 19 14 10 10 10 14 13 14 15 16 16 14 12 11 12 12 9 6 4 3 2 3 2 1 6 8 9 10 10 9 9 8 7
9 7 8 12 15 12 8 5 7 7 8 9 11 10 10 12 14 14 15 14 12 13 15 15 13 9 7 5 4 2 1 2 2 3 2 4 8 8 8 11 11 9 8 6
3 6 10 11 13 13 11 9 6 4 5 5 9 9 11 12 14 16 17 13 6 8 10 9 7 5 5 4 3 2 1 2 3 3 4 5 3 2 5 8 10 8 8 7
6 8 12 11 12 9 9 10 8 11 11 10 10 9 10 12 13 18 18 16 14 10 7 7 6 4 5 4 2 3 3 4 4 5 6 5 5 4 2 1 3 4 4 4
4 13 11 9 10 9 7 7 7 7 8 8 7 9 11 12 13 15 16 12 11 8 5 7 7 8 6 6 5 5 8 7 7 7 9 9 8 7 5 3 2 2 2 3
4 6 11 11 5 4 5 6 11 7 5 4 6 10 11 11 12 11 12 11 9 9 9 8 6 7 8 7 8 9 8 11 11 9 10 12 13 13 12 7 5 3 1 2
5 6 6 1 8 7 5 3 5 7 5 6 7 7 9 10 10 9 9 9 9 10 10 8 9 9 9 10 11 11 11 11 7 5 5 6 7 7 10 11 9 6 3 2
6 7 6 9 7 5 9 2 3 3 6 6 6 7 9 9 9 8 9 10 11 11 10 9 8 9 10 10 10 14 11 8 9 9 8 8 7 6 5 4 3 8 9 6
7 7 11 13 12 8 6 9 6 5 7 11 10 10 11 12 10 8 10 10 11 10 10 10 9 12 11 15 14 9 11 11 11 10 9 7 7 6 5 5 4 4 4 1
6 8 11 11 6 5 9 6 5 2 9 12 14 13 12 15 11 9 11 10 8 10 10 9 12 13 14 15 11 11 10 8 11 7 6 6 5 5 4 4 3 3 2 3
9 10 13 15 10 13 11 8 11 10 10 9 11 13 11 10 11 12 13 12 11 11 8 10 11 14 14 14 11 10 7 6 4 6 4 3 2 1 0 1 2 2 5 6
10 11 13 15 15 16 15 9 10 10 11 7 13 12 12 11 12 12 12 13 11 14 12 12 15 15 13 12 12 7 4 5 3 3 1 3 5 5 7 3 4 6 5 7
13 14 14 15 16 16 18 15 13 14 11 17 23 20 20 18 14 12 11 11 17 13 15 17 18 13 13 15 11 5 4 3 2 1 4 4 6 8 6 8 8 9 9 6
15 17 18 16 16 16 17 18 19 13 15 15 16 17 17 16 15 11 10 15 10 14 11 13 14 9 8 13 11 2 0 2 5 4 2 4 5 7 11 8 9 6 8 9
16 18 19 16 18 19 17 16 19 15 22 9 15 20 17 16 16 15 14 14 16 13 9 19 12 13 11 8 3 3 3 3 5 1 3 4 6 9 9 7 7 7 10 8
18 17 18 18 18 20 23 22 22 26 14 10 16 19 17 15 14 16 19 19 14 14 13 15 12 12 12 8 4 9 7 7 7 3 4 4 7 4 7 10 8 9 10 9
15 13 15 16 20 21 14 13 7 8 6 18 20 18 18 22 16 13 17 23 22 21 19 19 16 16 17 14 11 5 12 11 5 5 10 12 3 5 11 5 8 7 7 7
11 11 12 11 7 10 1 14 6 14 9 7 12 16 17 19 21 21 25 25 21 13 12 13 9 7 7 10 11 8 7 8 9 6 4 1 6 7 4 5 9 7 7 4
5 6 7 8 7 5 7 7 12 11 11 16 19 21 19 18 17 15 14 19 15 12 6 5 5 7 8 1 3 7 8 7 7 5 5 5 3 4 6 7 7 6 7 12
14 13 12 11 13 12 12 13 18 17 18 19 19 16 13 15 14 13 14 13 11 9 6 6 6 6 8 11 8 6 9 3 5 2 3 2 3 3 4 4 7 11 14 16
Wind_Direction
282 283 284 247 228 237 229 245 251 277 138 118 108 89 342 292 151 157 149 157 146 152 167 175 179 173 156 147 152 171 172 189 206 214 259 274 183 228 66 73 64 60 64 63
277 281 277 268 264 260 273 287 286 256 264 143 116 123 207 255 154 164 159 164 154 162 177 176 172 154 159 163 165 186 185 202 242 236 254 249 248 270 344 48 67 66 62 59
266 279 271 272 271 257 267 267 266 282 291 92 68 40 283 214 168 174 169 172 157 163 172 164 155 175 166 170 186 202 208 222 247 255 260 256 244 252 292 25 96 81 113 65
276 272 253 262 299 314 325 279 272 310 123 140 149 191 220 241 160 173 174 170 157 156 164 162 166 174 183 199 208 188 229 230 235 228 244 267 233 230 265 291 192 154 65 61
263 259 267 272 81 294 293 265 44 61 87 81 50 342 111 106 137 168 171 160 152 147 158 169 171 183 183 168 156 224 239 254 257 251 245 249 244 256 261 289 229 196 149 100
262 275 257 268 279 348 297 205 41 83 96 94 112 282 2 76 93 106 146 146 147 162 175 174 170 178 156 168 188 212 240 263 287 292 246 202 237 260 244 274 222 218 211 231
236 254 268 282 296 78 334 356 3 66 102 131 132 201 197 106 91 109 128 149 162 173 179 193 186 161 188 204 214 238 266 299 317 319 206 201 213 233 225 228 192 200 227 220
244 257 259 283 320 33 69 25 357 31 64 90 108 130 117 113 130 130 129 124 146 152 149 149 160 183 200 215 225 245 281 317 331 331 207 189 209 223 233 198 230 226 219 243
219 263 90 51 66 63 37 30 25 23 48 101 128 132 138 129 128 127 129 135 155 152 152 152 152 200 196 188 204 223 279 330 31 47 65 182 193 208 214 206 223 242 234 256
324 139 100 86 67 39 30 20 8 30 91 105 116 126 122 126 131 135 137 133 132 127 134 130 153 172 164 169 187 181 119 58 52 55 75 90 108 172 202 216 231 240 248 249
262 106 100 50 72 48 33 28 32 43 43 105 129 138 144 146 143 149 149 148 155 172 180 153 156 156 155 150 143 137 113 89 78 77 79 78 83 83 115 199 227 241 235 230
37 12 19 10 25 30 26 33 29 48 68 88 137 151 157 164 168 172 173 174 167 175 184 177 175 163 160 150 141 104 88 90 89 87 82 77 72 72 79 86 138 157 180 193
115 24 3 322 317 11 20 41 29 69 71 117 133 154 163 168 163 170 152 164 158 155 156 162 157 138 146 137 135 135 119 93 83 75 66 61 55 59 49 49 64 87 142 207
35 2 322 55 356 345 326 22 137 107 101 152 157 162 154 171 164 152 156 160 157 148 148 153 148 148 146 138 122 108 116 107 98 101 82 64 45 35 34 44 30 31 38 55
299 318 303 315 323 340 358 248 121 130 132 138 155 159 160 153 155 159 153 152 150 151 153 153 147 142 133 134 135 111 104 119 121 120 117 103 93 89 79 72 46 356 23 39
290 307 306 298 302 295 294 339 346 188 186 167 180 182 166 163 164 152 158 159 153 163 164 161 155 138 154 131 110 143 149 134 107 96 95 93 85 78 69 71 72 6 318 257
297 301 311 305 307 265 281 273 302 23 228 202 175 178 191 165 143 165 152 157 166 179 177 179 163 155 140 129 136 124 126 124 126 113 101 92 82 72 72 59 57 37 222 283
277 287 288 284 282 284 244 266 282 294 277 245 190 167 165 166 164 169 164 169 171 159 164 178 170 153 141 139 134 130 133 129 125 117 96 100 351 260 206 342 331 352 271 279
307 273 270 277 284 282 313 257 261 273 243 211 207 176 169 188 178 170 180 171 167 150 175 183 173 146 157 156 148 150 142 148 144 153 81 285 317 314 319 329 332 325 302 285
310 307 307 272 271 273 274 285 268 236 211 196 194 187 185 187 190 186 193 187 162 170 187 187 162 158 173 183 172 115 191 170 92 155 268 284 338 3 7 329 327 309 307 309
287 289 300 303 275 270 273 262 263 259 240 210 205 218 194 180 178 175 167 169 170 200 208 185 149 175 148 174 150 14 176 255 261 316 17 10 328 335 339 331 344 334 305 290
282 272 271 286 289 274 271 259 256 252 228 220 201 208 190 174 170 166 166 173 173 189 192 151 159 182 180 152 209 240 134 142 108 70 360 42 21 3 350 353 354 336 1 332
276 259 253 268 266 263 258 253 258 242 230 204 174 179 184 178 173 165 164 170 176 163 160 179 183 183 178 171 175 195 177 174 181 135 65 18 342 336 3 331 332 338 336 341
260 252 251 253 260 266 282 288 187 125 139 128 141 163 165 147 152 163 170 168 167 173 173 175 180 194 202 190 188 196 209 219 227 294 299 314 76 322 307 313 340 359 353 18
247 248 253 253 239 228 245 233 213 162 176 168 157 148 153 157 170 150 160 154 169 167 165 161 178 196 209 227 245 272 284 305 295 331 102 322 321 342 17 60 24 18 344 343
216 209 197 194 177 137 143 154 132 122 135 138 139 140 135 140 147 153 154 167 176 188 188 187 224 260 255 262 67 78 88 89 25 3 344 329 353 13 17 17 10 2 344 302
123 130 116 123 131 140 129 124 125 124 124 124 125 126 134 139 135 142 156 161 160 171 173 140 129 130 118 108 91 70 110 63 13 65 1 347 39 7 332 327 312 298 298 300
Height
1481 1475 1472 1472 1471 1467 1472 1471 1482 1472 1477 1490 1491 1489 1516 1497 1489 1494 1493 1497 1501 1508 1511 1513 1516 1517 1520 1525 1527 1532 1537 1540 1541 1541 1541 1542 1542 1540 1539 1537 1536 1536 1536 1536
1491 1479 1473 1472 1465 1463 1464 1462 1460 1459 1462 1478 1492 1493 1502 1500 1490 1496 1495 1500 1501 1507 1510 1514 1519 1522 1525 1528 1531 1535 1537 1540 1540 1540 1540 1540 1540 1540 1539 1537 1537 1538 1538 1536
1501 1479 1476 1485 1468 1462 1461 1457 1458 1464 1456 1479 1494 1504 1500 1487 1488 1490 1494 1501 1502 1506 1511 1515 1519 1525 1528 1529 1531 1534 1536 1538 1537 1538 1538 1538 1539 1537 1538 1538 1537 1538 1538 1537
1498 1487 1507 1470 1457 1454 1460 1455 1454 1453 1468 1474 1487 1480 1480 1484 1483 1489 1494 1499 1502 1505 1511 1516 1520 1523 1525 1527 1530 1533 1533 1534 1533 1534 1535 1535 1536 1536 1536 1537 1536 1537 1537 1537
1503 1498 1480 1467 1465 1466 1464 1463 1463 1474 1489 1496 1497 1507 1484 1486 1487 1491 1494 1497 1500 1507 1512 1514 1518 1521 1526 1528 1530 1529 1528 1529 1529 1530 1532 1534 1533 1534 1534 1535 1535 1536 1536 1536
1499 1503 1501 1469 1460 1466 1464 1465 1462 1473 1491 1490 1499 1516 1494 1489 1489 1489 1492 1498 1501 1504 1509 1512 1516 1520 1525 1527 1527 1525 1525 1526 1527 1527 1528 1530 1531 1532 1533 1534 1534 1535 1534 1536
1499 1502 1486 1464 1465 1472 1515 1490 1474 1472 1481 1486 1486 1497 1506 1496 1491 1494 1496 1500 1501 1502 1503 1511 1516 1520 1522 1522 1524 1524 1524 1524 1525 1526 1526 1528 1529 1530 1531 1532 1533 1534 1534 1535
1492 1498 1498 1467 1469 1479 1490 1484 1482 1472 1478 1481 1489 1494 1495 1494 1496 1497 1500 1505 1505 1503 1508 1513 1515 1517 1519 1521 1522 1523 1523 1523 1524 1524 1525 1526 1528 1529 1530 1531 1531 1533 1534 1533
1481 1481 1473 1474 1479 1489 1490 1487 1482 1481 1482 1487 1493 1498 1500 1498 1499 1502 1504 1506 1506 1506 1509 1512 1514 1516 1518 1520 1521 1521 1522 1523 1523 1523 1524 1525 1526 1527 1528 1529 1530 1531 1532 1533
1477 1473 1478 1479 1482 1485 1486 1486 1485 1484 1485 1488 1493 1497 1497 1499 1501 1502 1503 1507 1508 1508 1510 1512 1514 1516 1518 1519 1520 1520 1521 1521 1522 1523 1524 1525 1525 1526 1527 1528 1530 1531 1531 1532
1475 1478 1483 1472 1481 1486 1489 1489 1488 1487 1488 1490 1493 1497 1499 1501 1503 1502 1502 1504 1506 1509 1511 1512 1513 1515 1518 1520 1521 1521 1520 1521 1523 1524 1525 1525 1525 1526 1527 1528 1529 1530 1531 1532
1490 1491 1489 1485 1487 1488 1489 1492 1493 1494 1494 1495 1497 1499 1499 1500 1501 1502 1502 1504 1506 1508 1510 1513 1514 1514 1518 1520 1521 1523 1521 1522 1524 1526 1526 1526 1526 1527 1528 1529 1529 1530 1531 1533
1494 1495 1494 1493 1493 1492 1491 1493 1494 1495 1496 1497 1497 1498 1498 1499 1501 1501 1502 1503 1506 1508 1511 1513 1516 1515 1517 1520 1522 1524 1524 1525 1526 1527 1528 1528 1529 1529 1530 1530 1531 1531 1532 1533
1496 1495 1494 1495 1496 1495 1492 1492 1492 1494 1494 1496 1497 1498 1499 1499 1501 1502 1503 1504 1506 1509 1512 1514 1516 1517 1519 1521 1523 1525 1527 1529 1532 1533 1533 1532 1531 1532 1532 1531 1532 1534 1534 1534
1496 1495 1495 1494 1494 1493 1493 1492 1492 1495 1495 1495 1497 1498 1499 1501 1503 1504 1505 1507 1509 1512 1514 1515 1517 1518 1520 1523 1525 1527 1530 1532 1533 1533 1534 1535 1536 1537 1537 1537 1535 1535 1535 1535
1495 1494 1496 1495 1494 1494 1493 1492 1492 1494 1496 1494 1498 1499 1499 1501 1503 1505 1507 1509 1511 1514 1516 1517 1518 1520 1522 1524 1527 1530 1531 1532 1533 1534 1535 1537 1537 1537 1537 1537 1538 1538 1537 1537
1496 1496 1496 1494 1494 1494 1494 1494 1495 1494 1496 1496 1494 1497 1500 1501 1503 1505 1507 1510 1513 1515 1517 1519 1520 1521 1523 1526 1529 1531 1533 1533 1534 1537 1537 1538 1538 1539 1539 1539 1539 1540 1539 1540
1496 1495 1495 1495 1494 1496 1493 1494 1493 1491 1493 1492 1495 1494 1499 1500 1502 1503 1506 1508 1511 1514 1518 1520 1522 1523 1526 1528 1530 1532 1534 1535 1536 1537 1538 1539 1539 1539 1539 1539 1539 1538 1537 1537
1494 1494 1494 1493 1491 1490 1490 1490 1490 1490 1491 1492 1498 1498 1498 1500 1502 1502 1501 1506 1509 1510 1516 1520 1523 1524 1528 1530 1532 1534 1535 1536 1537 1538 1539 1539 1539 1538 1538 1537 1537 1537 1536 1534
1492 1491 1490 1490 1489 1489 1488 1487 1486 1487 1487 1491 1492 1492 1492 1494 1496 1499 1503 1506 1507 1511 1516 1519 1521 1524 1527 1531 1531 1532 1535 1536 1537 1537 1537 1538 1538 1537 1536 1536 1536 1535 1535 1535
1491 1491 1489 1487 1487 1486 1485 1484 1484 1483 1483 1483 1490 1493 1492 1492 1492 1496 1501 1507 1508 1512 1515 1518 1521 1526 1528 1531 1531 1534 1535 1535 1535 1536 1537 1537 1537 1536 1535 1535 1535 1534 1533 1533
1489 1488 1486 1485 1483 1482 1480 1478 1478 1479 1477 1478 1480 1488 1489 1494 1495 1496 1501 1506 1510 1512 1515 1520 1523 1527 1530 1532 1532 1532 1534 1535 1535 1536 1536 1535 1535 1535 1536 1535 1534 1533 1532 1532
1482 1482 1481 1480 1479 1476 1474 1474 1474 1473 1475 1478 1484 1487 1490 1491 1491 1495 1501 1507 1510 1514 1518 1522 1524 1526 1529 1531 1530 1531 1532 1532 1533 1533 1533 1534 1534 1535 1535 1536 1534 1534 1532 1530
1476 1475 1476 1476 1475 1474 1478 1477 1470 1471 1472 1476 1481 1488 1488 1482 1489 1497 1502 1506 1509 1513 1516 1519 1523 1525 1527 1528 1528 1529 1531 1531 1531 1531 1532 1534 1536 1536 1536 1534 1533 1531 1528 1527
1472 1472 1472 1472 1473 1469 1471 1477 1474 1477 1476 1476 1480 1479 1483 1488 1492 1498 1502 1505 1510 1514 1517 1521 1523 1525 1526 1527 1528 1529 1530 1531 1531 1531 1532 1533 1534 1533 1531 1530 1529 1529 1525 1525
1470 1471 1472 1471 1472 1472 1472 1474 1476 1480 1479 1480 1481 1485 1490 1494 1498 1502 1505 1509 1513 1516 1519 1521 1522 1523 1524 1526 1527 1528 1529 1530 1531 1532 1532 1533 1531 1530 1529 1529 1528 1526 1523 1522
1472 1473 1475 1475 1475 1475 1477 1477 1478 1479 1483 1486 1488 1493 1496 1498 1502 1505 1509 1511 1514 1517 1519 1521 1522 1524 1525 1527 1528 1529 1530 1531 1531 1531 1532 1530 1529 1527 1527 1526 1525 1523 1521 1518